CW9414 Weather Reports


time (UTC)temp
C
wind
direction
speed
KPH
gust
KPH
rain 1hr
cm
rain 24hr
cm
rain mn
cm
humidity
%
barometer
mb
20240420173448 26 153 0.0 3.2 0.00 0.00 0.00 75 1011.6
20240420172447 27 153 0.0 4.8 0.00 0.00 0.00 75 1011.8
20240420171450 27 153 0.0 0.0 0.00 0.00 0.00 74 1011.8
20240420170450 27 153 0.0 3.2 0.00 0.00 0.00 75 1011.8
20240420165447 27 153 0.0 4.8 0.00 0.00 0.00 75 1011.8
20240420164448 26 153 0.0 3.2 0.00 0.00 0.00 76 1011.9
20240420163448 26 156 3.2 6.4 0.00 0.00 0.00 78 1011.9
20240420162447 26 157 0.0 6.4 0.00 0.00 0.00 79 1011.9
20240420161447 26 157 1.6 3.2 0.00 0.00 0.00 80 1012.1
20240420160448 25 157 0.0 4.8 0.00 0.00 0.00 81 1012.1
20240420155447 25 157 0.0 4.8 0.00 0.00 0.00 82 1012.2
20240420154448 25 157 3.2 9.7 0.00 0.00 0.00 83 1012.3
20240420153447 25 157 4.8 4.8 0.00 0.00 0.00 85 1012.3
20240420152447 25 158 1.6 4.8 0.00 0.00 0.00 86 1012.3
20240420151447 25 155 0.0 1.6 0.00 0.00 0.00 88 1012.3
20240420150447 24 155 0.0 3.2 0.00 0.00 0.00 89 1012.3
20240420145450 24 159 0.0 6.4 0.00 0.00 0.00 90 1012.3
20240420144447 24 166 0.0 3.2 0.00 0.00 0.00 91 1012.3
20240420143447 23 166 0.0 4.8 0.00 0.00 0.00 92 1012.3
20240420142447 23 166 0.0 3.2 0.00 0.00 0.00 92 1012.3
20240420141447 23 158 0.0 0.0 0.00 0.00 0.00 93 1012.3
20240420140447 23 158 0.0 0.0 0.00 0.00 0.00 93 1012.3
20240420135448 23 157 0.0 0.0 0.00 0.00 0.00 93 1012.5
20240420134447 23 157 0.0 1.6 0.00 0.00 0.00 93 1012.3
20240420133448 23 157 0.0 4.8 0.00 0.00 0.00 93 1012.3
20240420132447 22 157 0.0 1.6 0.00 0.00 0.00 93 1012.3
20240420131447 22 157 0.0 0.0 0.00 0.00 0.00 93 1012.3
20240420130447 22 157 0.0 0.0 0.00 0.00 0.00 93 1012.3
20240420125447 22 157 0.0 0.0 0.00 0.00 0.00 93 1012.3
20240420124446 22 157 0.0 0.0 0.00 0.00 0.00 93 1012.3
20240420123450 22 157 0.0 0.0 0.00 0.00 0.00 92 1012.3
20240420122448 21 157 0.0 0.0 0.00 0.00 0.00 92 1012.1
20240420121446 21 157 0.0 0.0 0.00 0.00 0.00 91 1012.1
20240420120450 21 157 0.0 0.0 0.00 0.00 0.00 91 1012.1
20240420115446 21 157 0.0 0.0 0.00 0.00 0.00 91 1011.9
20240420114446 21 157 0.0 0.0 0.00 0.00 0.00 90 1011.7
20240420113446 21 157 0.0 0.0 0.00 0.00 0.00 90 1011.7
20240420112448 21 157 0.0 0.0 0.00 0.00 0.00 90 1011.7
20240420111447 22 157 0.0 0.0 0.00 0.00 0.00 91 1011.9
20240420110448 22 157 0.0 0.0 0.00 0.00 0.00 91 1011.9
20240420105447 22 157 0.0 0.0 0.00 0.00 0.00 91 1011.8
20240420104450 22 157 0.0 0.0 0.00 0.00 0.00 91 1011.7
20240420103446 22 157 0.0 0.0 0.00 0.00 0.00 90 1011.7
20240420102446 22 157 0.0 0.0 0.00 0.00 0.00 90 1011.7
20240420101446 22 157 0.0 0.0 0.00 0.00 0.00 90 1011.7
20240420100446 22 157 0.0 0.0 0.00 0.00 0.00 90 1011.7
20240420095446 22 157 0.0 0.0 0.00 0.00 0.00 90 1012.1
20240420094446 22 157 0.0 0.0 0.00 0.00 0.00 89 1012.2
20240420093446 22 157 0.0 0.0 0.00 0.00 0.00 89 1012.2
20240420092449 22 157 0.0 0.0 0.00 0.00 0.00 89 1012.2
20240420091449 22 157 0.0 0.0 0.00 0.00 0.00 89 1012.3
20240420090446 22 157 0.0 0.0 0.00 0.00 0.00 88 1012.3
20240420085446 22 157 0.0 0.0 0.00 0.00 0.00 88 1012.5
20240420084446 22 157 0.0 0.0 0.00 0.00 0.00 87 1012.3
20240420083449 22 157 0.0 0.0 0.00 0.00 0.00 87 1012.3
20240420082449 22 157 0.0 0.0 0.00 0.00 0.00 87 1012.3
20240420081446 22 157 0.0 0.0 0.00 0.00 0.00 87 1012.2
20240420080448 22 157 0.0 0.0 0.00 0.00 0.00 87 1012.2
20240420075446 23 157 0.0 0.0 0.00 0.00 0.00 87 1012.3
20240420074446 23 157 0.0 0.0 0.00 0.00 0.00 87 1012.3
20240420073446 23 157 0.0 0.0 0.00 0.00 0.00 87 1012.3
20240420072447 23 157 0.0 0.0 0.00 0.00 0.00 87 1012.3
20240420071446 23 157 0.0 0.0 0.00 0.00 0.00 87 1012.3
20240420070446 23 157 0.0 0.0 0.00 0.00 0.00 87 1012.3
20240420065446 23 157 0.0 0.0 0.00 0.00 0.00 87 1012.3
20240420064446 23 157 0.0 1.6 0.00 0.00 0.00 86 1012.4
20240420063449 23 157 1.6 1.6 0.00 0.00 0.00 86 1012.4
20240420062447 23 159 0.0 3.2 0.00 0.00 0.00 86 1012.8
20240420061447 23 159 0.0 6.4 0.00 0.00 0.00 86 1012.6
20240420060449 23 159 0.0 3.2 0.00 0.00 0.00 86 1012.6
20240420055446 23 159 1.6 6.4 0.00 0.00 0.00 86 1012.7
20240420054447 23 161 0.0 3.2 0.00 0.00 0.00 86 1012.8
20240420053446 23 161 0.0 0.0 0.00 0.00 0.00 86 1012.8
20240420052446 23 161 0.0 0.0 0.00 0.00 0.00 86 1012.4
20240420051449 23 161 0.0 1.6 0.00 0.00 0.00 85 1012.4
20240420050446 23 161 0.0 4.8 0.00 0.00 0.03 85 1012.4
20240420045446 23 161 0.0 3.2 0.00 0.00 0.03 84 1012.3
20240420044446 23 161 0.0 3.2 0.00 0.00 0.03 84 1012.3
20240420043446 23 161 0.0 0.0 0.00 0.00 0.03 84 1012.3
20240420042446 23 161 0.0 0.0 0.00 0.00 0.03 83 1012.1
20240420041446 23 161 0.0 1.6 0.00 0.00 0.03 83 1011.8
20240420040450 23 161 0.0 1.6 0.00 0.00 0.03 83 1011.8
20240420035446 23 161 0.0 3.2 0.00 0.00 0.03 83 1011.8
20240420034446 23 161 1.6 4.8 0.00 0.00 0.03 82 1011.8
20240420033446 24 155 0.0 6.4 0.00 0.00 0.03 82 1011.8
20240420032447 24 142 0.0 0.0 0.00 0.00 0.03 81 1011.8
20240420031446 24 143 0.0 4.8 0.00 0.00 0.03 81 1011.8
20240420030446 24 143 0.0 9.7 0.00 0.00 0.03 80 1011.8
20240420025449 25 159 0.0 1.6 0.00 0.00 0.03 79 1011.6
20240420024450 25 142 0.0 1.6 0.00 0.00 0.03 79 1011.5
20240420023446 25 142 0.0 1.6 0.00 0.00 0.03 78 1011.5
20240420022446 25 142 0.0 4.8 0.00 0.00 0.03 77 1011.3
20240420021447 25 146 0.0 8.0 0.00 0.00 0.03 77 1011.0
20240420020447 25 157 0.0 8.0 0.00 0.00 0.03 76 1011.0
20240420015446 26 171 6.4 9.7 0.00 0.00 0.03 75 1010.8
20240420014450 26 148 0.0 9.7 0.00 0.00 0.03 75 1010.3
20240420013446 26 171 0.0 8.0 0.00 0.00 0.03 74 1010.3
20240420012446 26 179 1.6 9.7 0.00 0.00 0.03 74 1010.2
20240420011446 26 158 0.0 16.1 0.00 0.00 0.03 72 1010.6
20240420010447 26 135 1.6 6.4 0.00 0.00 0.03 72 1010.6
20240420005446 27 161 1.6 9.7 0.00 0.00 0.03 71 1010.8
20240420004449 27 159 3.2 6.4 0.00 0.00 0.03 71 1010.5
20240420003446 27 170 4.8 11.3 0.00 0.00 0.03 70 1010.6
20240420002450 27 147 3.2 16.1 0.00 0.00 0.03 70 1010.3
20240420001446 28 175 3.2 14.5 0.00 0.00 0.03 69 1009.9
20240420000446 28 105 4.8 6.4 0.00 0.00 0.03 68 1009.9
20240419235446 28 149 0.0 0.0 0.00 0.00 0.03 67 1010.3
20240419234446 29 149 0.0 0.0 0.00 0.00 0.03 67 1010.3
20240419233450 29 149 0.0 0.0 0.00 0.00 0.03 67 1010.3
20240419232447 29 149 0.0 0.0 0.00 0.00 0.03 66 1010.3
20240419231446 29 149 0.0 0.0 0.00 0.00 0.03 65 1010.4
20240419230446 29 149 0.0 0.0 0.00 0.00 0.03 65 1010.5
20240419225446 29 149 0.0 0.0 0.00 0.00 0.03 66 1010.4
20240419224446 29 149 0.0 0.0 0.00 0.00 0.03 68 1010.3
20240419223446 28 149 0.0 0.0 0.00 0.00 0.03 70 1010.3
20240419222446 28 149 0.0 0.0 0.00 0.00 0.03 69 1010.4
20240419221445 28 149 0.0 0.0 0.00 0.00 0.03 70 1010.4
20240419220446 28 149 0.0 0.0 0.00 0.00 0.03 70 1010.4
20240419215446 29 149 0.0 0.0 0.00 0.00 0.03 69 1010.5
20240419214447 29 149 0.0 0.0 0.00 0.00 0.03 66 1010.7
20240419213445 29 149 0.0 0.0 0.00 0.00 0.00 64 1010.7
20240419212446 30 149 0.0 0.0 0.00 0.00 0.00 63 1010.7
20240419211449 30 149 0.0 0.0 0.00 0.00 0.00 62 1010.8
20240419210446 30 149 0.0 0.0 0.00 0.00 0.00 62 1010.8
20240419205446 30 149 0.0 0.0 0.00 0.00 0.00 63 1010.9
20240419204447 30 149 0.0 0.0 0.00 0.00 0.00 63 1010.9
20240419203446 30 149 0.0 0.0 0.00 0.00 0.00 63 1010.9
20240419202447 29 149 0.0 0.0 0.00 0.00 0.00 63 1011.3
20240419201449 29 149 0.0 0.0 0.00 0.00 0.00 64 1011.4
20240419200447 29 149 0.0 0.0 0.00 0.00 0.00 64 1011.4
20240419195445 29 149 0.0 0.0 0.00 0.00 0.00 65 1011.5
20240419194445 28 149 0.0 4.8 0.00 0.00 0.00 66 1011.8
20240419193448 28 149 0.0 9.7 0.00 0.00 0.00 66 1011.8
20240419192450 28 152 4.8 8.0 0.00 0.00 0.00 65 1011.8
20240419191445 28 153 4.8 6.4 0.00 0.00 0.00 64 1011.9
20240419190448 29 153 0.0 8.0 0.00 0.00 0.00 63 1011.9
20240419185448 29 138 0.0 0.0 0.00 0.00 0.00 63 1011.8
20240419184445 29 138 0.0 3.2 0.00 0.00 0.00 64 1011.9
20240419183446 29 138 0.0 0.0 0.00 0.00 0.00 64 1011.9
20240419182445 30 138 0.0 4.8 0.00 0.00 0.00 63 1012.1
20240419181445 30 138 0.0 1.6 0.00 0.00 0.00 63 1012.4
20240419180446 30 138 0.0 1.6 0.00 0.00 0.00 66 1012.4
20240419175446 29 138 0.0 0.0 0.00 0.00 0.00 66 1012.4
20240419174445 29 138 0.0 0.0 0.00 0.00 0.00 65 1012.5